Menu Close Menu
Station Historical Data
Daily Summary for October 3, 2017 Units:  English    Metric   Both
« Previous Day
Next Day »
Daily Weekly Monthly Yearly Custom
  High: Low: Average:
Temperature: 78.3 °F 58.0 °F 67 °F
Dew Point: 59.7 °F 54.2 °F 56.4 °F
Humidity: 88% 51% 70%
Wind Speed: 14.0mph 2.0mph 5.3mph
Wind Gust: 21.0mph - -
Wind- - ENE
Pressure: 30.48 in 30.36 in -
Precipitation: 0.00 in    
Historical Graphs
 
 
Tabular Data for October 3, 2017
Time Temperature Dew Point Pressure Wind Wind Speed Wind Gust Humidity Rainfall Rate (Hourly) solar Conditions
00:00 64.6 °F 56.1 °F 30.37 in East 5.0 mph 5.0 mph 74% 0.00 in WeatherDisplay:10.37 W/m2 SCT
00:05 64.6 °F 56.1 °F 30.37 in East 5.0 mph 5.0 mph 74% 0.00 in WeatherDisplay:10.37 W/m2 SCT
00:10 64.6 °F 56.1 °F 30.37 in East 5.0 mph 5.0 mph 74% 0.00 in WeatherDisplay:10.37 W/m2 SCT
00:15 64.7 °F 56.2 °F 30.37 in East 5.0 mph 5.0 mph 74% 0.00 in WeatherDisplay:10.37 W/m2 FEW
00:20 64.7 °F 55.8 °F 30.36 in East 5.0 mph 5.0 mph 73% 0.00 in WeatherDisplay:10.37 W/m2 FEW
00:25 64.7 °F 56.2 °F 30.36 in East 5.0 mph 5.0 mph 74% 0.00 in WeatherDisplay:10.37 W/m2 FEW
00:30 64.7 °F 55.8 °F 30.36 in East 5.0 mph 5.0 mph 73% 0.00 in WeatherDisplay:10.37 W/m2 FEW
00:35 64.7 °F 55.8 °F 30.36 in East 5.0 mph 5.0 mph 73% 0.00 in WeatherDisplay:10.37 W/m2 FEW
00:40 64.6 °F 55.8 °F 30.36 in East 5.0 mph 5.0 mph 73% 0.00 in WeatherDisplay:10.37 W/m2 FEW
00:45 64.7 °F 55.8 °F 30.36 in East 5.0 mph 5.0 mph 73% 0.00 in WeatherDisplay:10.37 W/m2 FEW
00:50 64.7 °F 55.8 °F 30.36 in East 5.0 mph 5.0 mph 73% 0.00 in WeatherDisplay:10.37 W/m2 FEW
00:55 64.5 °F 56.0 °F 30.36 in East 5.0 mph 5.0 mph 74% 0.00 in WeatherDisplay:10.37 W/m2 FEW
01:00 64.4 °F 55.9 °F 30.36 in East 5.0 mph 5.0 mph 74% 0.00 in WeatherDisplay:10.37 W/m2 FEW
01:05 64.4 °F 55.9 °F 30.36 in East 5.0 mph 5.0 mph 74% 0.00 in WeatherDisplay:10.37 W/m2 FEW
01:10 64.4 °F 55.9 °F 30.36 in East 5.0 mph 5.0 mph 74% 0.00 in WeatherDisplay:10.37 W/m2 FEW
01:15 64.3 °F 55.8 °F 30.36 in ENE 3.0 mph 5.0 mph 74% 0.00 in WeatherDisplay:10.37 W/m2 SCT
01:20 64.3 °F 55.8 °F 30.36 in ENE 3.0 mph 3.0 mph 74% 0.00 in WeatherDisplay:10.37 W/m2 SCT
01:25 64.3 °F 55.8 °F 30.36 in ENE 3.0 mph 3.0 mph 74% 0.00 in WeatherDisplay:10.37 W/m2 SCT
01:30 64.3 °F 55.8 °F 30.36 in ENE 3.0 mph 3.0 mph 74% 0.00 in WeatherDisplay:10.37 W/m2 SCT
01:40 64.4 °F 55.9 °F 30.36 in ENE 3.0 mph 3.0 mph 74% 0.00 in WeatherDisplay:10.37 W/m2 SCT
01:45 64.3 °F 55.8 °F 30.36 in ENE 3.0 mph 3.0 mph 74% 0.00 in WeatherDisplay:10.37 W/m2 SCT
01:50 64.2 °F 55.7 °F 30.36 in ENE 3.0 mph 3.0 mph 74% 0.00 in WeatherDisplay:10.37 W/m2 SCT
01:55 64.2 °F 55.7 °F 30.36 in ENE 3.0 mph 3.0 mph 74% 0.00 in WeatherDisplay:10.37 W/m2 SCT
02:00 64.2 °F 55.7 °F 30.37 in ENE 3.0 mph 3.0 mph 74% 0.00 in WeatherDisplay:10.37 W/m2 SCT
02:05 64.1 °F 55.6 °F 30.37 in ENE 3.0 mph 3.0 mph 74% 0.00 in WeatherDisplay:10.37 W/m2 SCT
02:10 64.1 °F 55.6 °F 30.37 in ENE 3.0 mph 3.0 mph 74% 0.00 in WeatherDisplay:10.37 W/m2 SCT
02:15 64.0 °F 55.5 °F 30.37 in ENE 6.0 mph 6.0 mph 74% 0.00 in WeatherDisplay:10.37 W/m2 SCT
02:20 63.9 °F 55.4 °F 30.37 in East 6.0 mph 6.0 mph 74% 0.00 in WeatherDisplay:10.37 W/m2 SCT
02:25 63.8 °F 55.4 °F 30.37 in East 6.0 mph 6.0 mph 74% 0.00 in WeatherDisplay:10.37 W/m2 SCT
02:30 63.7 °F 55.3 °F 30.37 in East 6.0 mph 6.0 mph 74% 0.00 in WeatherDisplay:10.37 W/m2 SCT
02:35 63.6 °F 55.5 °F 30.36 in East 6.0 mph 6.0 mph 75% 0.00 in WeatherDisplay:10.37 W/m2 SCT
02:45 63.4 °F 55.3 °F 30.36 in East 6.0 mph 6.0 mph 75% 0.00 in WeatherDisplay:10.37 W/m2 SCT
02:50 63.3 °F 55.2 °F 30.36 in East 6.0 mph 6.0 mph 75% 0.00 in WeatherDisplay:10.37 W/m2 SCT
02:55 63.2 °F 55.1 °F 30.36 in East 6.0 mph 6.0 mph 75% 0.00 in WeatherDisplay:10.37 W/m2 SCT
03:00 63.2 °F 55.1 °F 30.36 in East 6.0 mph 6.0 mph 75% 0.00 in WeatherDisplay:10.37 W/m2 SCT
03:05 63.1 °F 55.0 °F 30.36 in East 6.0 mph 6.0 mph 75% 0.00 in WeatherDisplay:10.37 W/m2 SCT
03:10 63.1 °F 55.0 °F 30.36 in East 6.0 mph 6.0 mph 75% 0.00 in WeatherDisplay:10.37 W/m2 SCT
03:15 63.0 °F 54.9 °F 30.36 in East 3.0 mph 6.0 mph 75% 0.00 in WeatherDisplay:10.37 W/m2 FEW
03:20 63.0 °F 55.3 °F 30.36 in East 3.0 mph 3.0 mph 76% 0.00 in WeatherDisplay:10.37 W/m2 FEW
03:25 62.8 °F 55.2 °F 30.36 in East 3.0 mph 3.0 mph 76% 0.00 in WeatherDisplay:10.37 W/m2 FEW
03:30 62.8 °F 55.1 °F 30.36 in East 3.0 mph 3.0 mph 76% 0.00 in WeatherDisplay:10.37 W/m2 FEW
03:35 62.7 °F 55.0 °F 30.36 in East 3.0 mph 3.0 mph 76% 0.00 in WeatherDisplay:10.37 W/m2 FEW
03:40 62.5 °F 55.2 °F 30.36 in East 3.0 mph 3.0 mph 77% 0.00 in WeatherDisplay:10.37 W/m2 FEW
03:50 62.4 °F 55.1 °F 30.36 in East 3.0 mph 3.0 mph 77% 0.00 in WeatherDisplay:10.37 W/m2 FEW
03:55 62.3 °F 55.0 °F 30.36 in East 3.0 mph 3.0 mph 77% 0.00 in WeatherDisplay:10.37 W/m2 FEW
04:00 62.2 °F 55.3 °F 30.36 in East 3.0 mph 3.0 mph 78% 0.00 in WeatherDisplay:10.37 W/m2 FEW
04:05 62.1 °F 55.2 °F 30.36 in East 3.0 mph 3.0 mph 78% 0.00 in WeatherDisplay:10.37 W/m2 FEW
04:10 62.1 °F 55.2 °F 30.36 in East 3.0 mph 3.0 mph 78% 0.00 in WeatherDisplay:10.37 W/m2 FEW
04:15 62.0 °F 55.1 °F 30.36 in East 3.0 mph 3.0 mph 78% 0.00 in WeatherDisplay:10.37 W/m2 FEW
04:20 61.9 °F 55.0 °F 30.36 in East 3.0 mph 3.0 mph 78% 0.00 in WeatherDisplay:10.37 W/m2 FEW
04:25 61.9 °F 55.0 °F 30.36 in East 3.0 mph 3.0 mph 78% 0.00 in WeatherDisplay:10.37 W/m2 FEW
04:30 61.9 °F 54.9 °F 30.37 in East 3.0 mph 3.0 mph 78% 0.00 in WeatherDisplay:10.37 W/m2 FEW
04:35 61.8 °F 55.2 °F 30.37 in East 3.0 mph 3.0 mph 79% 0.00 in WeatherDisplay:10.37 W/m2 FEW
04:40 61.8 °F 55.2 °F 30.37 in East 3.0 mph 3.0 mph 79% 0.00 in WeatherDisplay:10.37 W/m2 FEW
04:45 61.6 °F 55.0 °F 30.37 in East 3.0 mph 3.0 mph 79% 0.00 in WeatherDisplay:10.37 W/m2 FEW
04:50 61.5 °F 55.3 °F 30.37 in East 3.0 mph 3.0 mph 80% 0.00 in WeatherDisplay:10.37 W/m2 FEW
04:55 61.4 °F 55.2 °F 30.37 in East 3.0 mph 3.0 mph 80% 0.00 in WeatherDisplay:10.37 W/m2 FEW
05:00 61.3 °F 55.1 °F 30.37 in East 3.0 mph 3.0 mph 80% 0.00 in WeatherDisplay:10.37 W/m2 FEW
05:05 61.1 °F 54.9 °F 30.37 in East 3.0 mph 3.0 mph 80% 0.00 in WeatherDisplay:10.37 W/m2 FEW
05:10 60.9 °F 55.0 °F 30.38 in East 3.0 mph 3.0 mph 81% 0.00 in WeatherDisplay:10.37 W/m2 FEW
05:15 60.8 °F 54.9 °F 30.38 in ENE 2.0 mph 3.0 mph 81% 0.00 in WeatherDisplay:10.37 W/m2 CLR
05:20 60.6 °F 55.1 °F 30.38 in ENE 2.0 mph 2.0 mph 82% 0.00 in WeatherDisplay:10.37 W/m2 CLR
05:25 60.4 °F 54.9 °F 30.38 in ENE 2.0 mph 2.0 mph 82% 0.00 in WeatherDisplay:10.37 W/m2 CLR
05:30 60.2 °F 54.7 °F 30.38 in ENE 2.0 mph 2.0 mph 82% 0.00 in WeatherDisplay:10.37 W/m2 CLR
05:40 60.2 °F 55.0 °F 30.38 in ENE 2.0 mph 2.0 mph 83% 0.00 in WeatherDisplay:10.37 W/m2 CLR
05:45 60.2 °F 55.0 °F 30.38 in ENE 2.0 mph 2.0 mph 83% 0.00 in WeatherDisplay:10.37 W/m2 CLR
05:50 60.1 °F 54.9 °F 30.39 in ENE 2.0 mph 2.0 mph 83% 0.00 in WeatherDisplay:10.37 W/m2 CLR
05:55 60.0 °F 54.8 °F 30.39 in ENE 2.0 mph 2.0 mph 83% 0.00 in WeatherDisplay:10.37 W/m2 CLR
06:00 59.9 °F 54.7 °F 30.39 in ENE 2.0 mph 2.0 mph 83% 0.00 in WeatherDisplay:10.37 W/m2 CLR
06:05 59.7 °F 54.9 °F 30.39 in ENE 2.0 mph 2.0 mph 84% 0.00 in WeatherDisplay:10.37 W/m2 CLR
06:10 59.7 °F 54.9 °F 30.39 in ENE 2.0 mph 2.0 mph 84% 0.00 in WeatherDisplay:10.37 W/m2 CLR
06:15 59.6 °F 54.8 °F 30.39 in ENE 3.0 mph 3.0 mph 84% 0.00 in WeatherDisplay:10.37 W/m2 CLR
06:20 59.5 °F 54.7 °F 30.40 in ENE 3.0 mph 3.0 mph 84% 0.00 in WeatherDisplay:10.37 W/m2 CLR
06:25 59.4 °F 54.6 °F 30.40 in ENE 3.0 mph 3.0 mph 84% 0.00 in WeatherDisplay:10.37 W/m2 CLR
06:30 59.2 °F 54.7 °F 30.40 in ENE 3.0 mph 3.0 mph 85% 0.00 in WeatherDisplay:10.37 W/m2 CLR
06:35 59.1 °F 54.6 °F 30.40 in ENE 3.0 mph 3.0 mph 85% 0.00 in WeatherDisplay:10.37 W/m2 CLR
06:40 59.0 °F 54.5 °F 30.41 in ENE 3.0 mph 3.0 mph 85% 0.00 in WeatherDisplay:10.37 W/m2 CLR
06:45 58.8 °F 54.6 °F 30.41 in ENE 3.0 mph 3.0 mph 86% 0.00 in WeatherDisplay:10.37 W/m2 CLR
06:50 58.6 °F 54.4 °F 30.41 in ENE 3.0 mph 3.0 mph 86% 0.00 in WeatherDisplay:10.37 W/m2 CLR
06:55 58.5 °F 54.3 °F 30.41 in ENE 3.0 mph 3.0 mph 86% 0.00 in WeatherDisplay:10.37 W/m2 CLR
07:00 58.4 °F 54.2 °F 30.41 in ENE 3.0 mph 3.0 mph 86% 0.00 in WeatherDisplay:10.37 W/m2 CLR
07:05 58.3 °F 54.4 °F 30.41 in ENE 3.0 mph 3.0 mph 87% 0.00 in WeatherDisplay:10.37 W/m2 CLR
07:10 58.2 °F 54.3 °F 30.41 in ENE 3.0 mph 3.0 mph 87% 0.00 in WeatherDisplay:10.37 W/m2 CLR
07:15 58.2 °F 54.3 °F 30.41 in ENE 3.0 mph 3.0 mph 87% 0.00 in WeatherDisplay:10.37 W/m2 FEW
07:20 58.2 °F 54.3 °F 30.42 in ENE 3.0 mph 3.0 mph 87% 0.00 in WeatherDisplay:10.37 W/m2 FEW
07:25 58.2 °F 54.3 °F 30.42 in ENE 3.0 mph 3.0 mph 87% 0.00 in WeatherDisplay:10.37 W/m2 FEW
07:30 58.2 °F 54.3 °F 30.42 in ENE 3.0 mph 3.0 mph 87% 0.00 in WeatherDisplay:10.37 W/m2 FEW
07:35 58.2 °F 54.4 °F 30.42 in ENE 3.0 mph 3.0 mph 87% 0.00 in WeatherDisplay:10.37 W/m2 FEW
07:40 58.2 °F 54.3 °F 30.42 in ENE 3.0 mph 3.0 mph 87% 0.00 in WeatherDisplay:10.37 W/m2 FEW
07:45 58.2 °F 54.3 °F 30.43 in ENE 3.0 mph 3.0 mph 87% 0.00 in WeatherDisplay:10.37 W/m2 FEW
07:50 58.1 °F 54.2 °F 30.43 in ENE 3.0 mph 3.0 mph 87% 0.00 in WeatherDisplay:10.37 W/m2 FEW
07:55 58.0 °F 54.5 °F 30.43 in ENE 3.0 mph 3.0 mph 88% 0.00 in WeatherDisplay:10.37 W/m2 FEW
08:00 58.0 °F 54.5 °F 30.43 in ENE 3.0 mph 3.0 mph 88% 0.00 in WeatherDisplay:10.37 W/m2 FEW
08:05 58.0 °F 54.5 °F 30.43 in ENE 3.0 mph 3.0 mph 88% 0.00 in WeatherDisplay:10.37 W/m2 FEW
08:10 58.2 °F 54.7 °F 30.43 in ENE 3.0 mph 3.0 mph 88% 0.00 in WeatherDisplay:10.37 W/m2 FEW
08:15 58.5 °F 55.0 °F 30.43 in ENE 3.0 mph 3.0 mph 88% 0.00 in WeatherDisplay:10.37 W/m2 SCT
08:20 58.9 °F 55.0 °F 30.43 in ENE 3.0 mph 3.0 mph 87% 0.00 in WeatherDisplay:10.37 W/m2 SCT
08:25 59.2 °F 55.0 °F 30.44 in ENE 3.0 mph 3.0 mph 86% 0.00 in WeatherDisplay:10.37 W/m2 SCT
08:30 59.4 °F 55.2 °F 30.44 in ENE 3.0 mph 3.0 mph 86% 0.00 in WeatherDisplay:10.37 W/m2 SCT
08:35 59.8 °F 55.3 °F 30.44 in ENE 3.0 mph 3.0 mph 85% 0.00 in WeatherDisplay:10.37 W/m2 SCT
08:40 60.1 °F 55.6 °F 30.45 in ENE 3.0 mph 3.0 mph 85% 0.00 in WeatherDisplay:10.37 W/m2 SCT
08:45 60.5 °F 55.6 °F 30.45 in ENE 3.0 mph 3.0 mph 84% 0.00 in WeatherDisplay:10.37 W/m2 SCT
08:50 60.7 °F 55.9 °F 30.45 in ENE 3.0 mph 3.0 mph 84% 0.00 in WeatherDisplay:10.37 W/m2 SCT
08:55 61.1 °F 56.2 °F 30.45 in ENE 3.0 mph 3.0 mph 84% 0.00 in WeatherDisplay:10.37 W/m2 SCT
09:00 61.3 °F 56.1 °F 30.45 in ENE 3.0 mph 3.0 mph 83% 0.00 in WeatherDisplay:10.37 W/m2 SCT
09:05 61.6 °F 56.4 °F 30.45 in ENE 3.0 mph 3.0 mph 83% 0.00 in WeatherDisplay:10.37 W/m2 SCT
09:10 62.0 °F 56.7 °F 30.45 in ENE 3.0 mph 3.0 mph 83% 0.00 in WeatherDisplay:10.37 W/m2 SCT
09:15 62.4 °F 57.2 °F 30.45 in ENE 5.0 mph 5.0 mph 83% 0.00 in WeatherDisplay:10.37 W/m2 FEW
09:20 62.7 °F 57.1 °F 30.45 in ENE 5.0 mph 5.0 mph 82% 0.00 in WeatherDisplay:10.37 W/m2 FEW
09:25 62.9 °F 57.4 °F 30.45 in ENE 5.0 mph 5.0 mph 82% 0.00 in WeatherDisplay:10.37 W/m2 FEW
09:30 63.2 °F 57.3 °F 30.45 in ENE 5.0 mph 5.0 mph 81% 0.00 in WeatherDisplay:10.37 W/m2 FEW
09:35 63.5 °F 57.6 °F 30.46 in ENE 5.0 mph 5.0 mph 81% 0.00 in WeatherDisplay:10.37 W/m2 FEW
09:40 63.9 °F 57.9 °F 30.46 in ENE 5.0 mph 5.0 mph 81% 0.00 in WeatherDisplay:10.37 W/m2 FEW
09:45 64.3 °F 58.3 °F 30.46 in ENE 5.0 mph 5.0 mph 81% 0.00 in WeatherDisplay:10.37 W/m2 FEW
09:50 64.6 °F 58.3 °F 30.46 in ENE 5.0 mph 5.0 mph 80% 0.00 in WeatherDisplay:10.37 W/m2 FEW
09:55 64.9 °F 58.6 °F 30.46 in ENE 5.0 mph 5.0 mph 80% 0.00 in WeatherDisplay:10.37 W/m2 FEW
10:00 65.1 °F 58.1 °F 30.46 in ENE 5.0 mph 5.0 mph 78% 0.00 in WeatherDisplay:10.37 W/m2 FEW
10:05 65.4 °F 58.0 °F 30.46 in ENE 5.0 mph 5.0 mph 77% 0.00 in WeatherDisplay:10.37 W/m2 FEW
10:10 65.8 °F 58.4 °F 30.47 in ENE 5.0 mph 5.0 mph 77% 0.00 in WeatherDisplay:10.37 W/m2 FEW
10:25 66.7 °F 58.1 °F 30.47 in East 7.0 mph 7.0 mph 74% 0.00 in WeatherDisplay:10.37 W/m2 FEW
10:30 67.0 °F 58.4 °F 30.47 in East 7.0 mph 7.0 mph 74% 0.00 in WeatherDisplay:10.37 W/m2 FEW
10:35 67.5 °F 58.9 °F 30.47 in East 7.0 mph 7.0 mph 74% 0.00 in WeatherDisplay:10.37 W/m2 FEW
10:40 67.7 °F 58.3 °F 30.47 in East 7.0 mph 7.0 mph 72% 0.00 in WeatherDisplay:10.37 W/m2 FEW
10:45 68.1 °F 58.7 °F 30.48 in East 7.0 mph 7.0 mph 72% 0.00 in WeatherDisplay:10.37 W/m2 FEW
10:50 68.6 °F 58.5 °F 30.48 in East 7.0 mph 7.0 mph 70% 0.00 in WeatherDisplay:10.37 W/m2 FEW
10:55 69.1 °F 58.5 °F 30.48 in East 7.0 mph 7.0 mph 69% 0.00 in WeatherDisplay:10.37 W/m2 FEW
11:00 69.8 °F 59.6 °F 30.48 in East 7.0 mph 7.0 mph 70% 0.00 in WeatherDisplay:10.37 W/m2 FEW
11:05 70.7 °F 59.2 °F 30.48 in East 7.0 mph 7.0 mph 67% 0.00 in WeatherDisplay:10.37 W/m2 FEW
11:10 71.2 °F 59.3 °F 30.48 in East 7.0 mph 7.0 mph 66% 0.00 in WeatherDisplay:10.37 W/m2 FEW
11:15 71.6 °F 59.2 °F 30.48 in East 7.0 mph 7.0 mph 65% 0.00 in WeatherDisplay:10.37 W/m2 FEW
11:20 71.7 °F 59.3 °F 30.48 in East 7.0 mph 7.0 mph 65% 0.00 in WeatherDisplay:10.37 W/m2 FEW
11:25 72.2 °F 59.3 °F 30.48 in East 7.0 mph 7.0 mph 64% 0.00 in WeatherDisplay:10.37 W/m2 FEW
11:30 72.6 °F 59.7 °F 30.48 in East 7.0 mph 7.0 mph 64% 0.00 in WeatherDisplay:10.37 W/m2 FEW
11:35 72.9 °F 58.7 °F 30.47 in East 7.0 mph 7.0 mph 61% 0.00 in WeatherDisplay:10.37 W/m2 FEW
11:40 72.9 °F 59.1 °F 30.47 in East 7.0 mph 7.0 mph 62% 0.00 in WeatherDisplay:10.37 W/m2 FEW
11:50 73.0 °F 58.8 °F 30.47 in East 7.0 mph 7.0 mph 61% 0.00 in WeatherDisplay:10.37 W/m2 FEW
11:55 72.6 °F 58.8 °F 30.47 in East 7.0 mph 7.0 mph 62% 0.00 in WeatherDisplay:10.37 W/m2 FEW
12:00 73.0 °F 58.8 °F 30.47 in East 7.0 mph 7.0 mph 61% 0.00 in WeatherDisplay:10.37 W/m2 FEW
12:05 73.5 °F 59.2 °F 30.47 in East 7.0 mph 7.0 mph 61% 0.00 in WeatherDisplay:10.37 W/m2 FEW
12:10 74.2 °F 59.4 °F 30.47 in East 7.0 mph 7.0 mph 60% 0.00 in WeatherDisplay:10.37 W/m2 FEW
12:15 73.8 °F 59.0 °F 30.47 in East 14.0 mph 21.0 mph 60% 0.00 in WeatherDisplay:10.37 W/m2 FEW
12:20 73.5 °F 58.8 °F 30.47 in East 14.0 mph 21.0 mph 60% 0.00 in WeatherDisplay:10.37 W/m2 FEW
12:25 73.5 °F 58.8 °F 30.47 in East 14.0 mph 21.0 mph 60% 0.00 in WeatherDisplay:10.37 W/m2 FEW
12:30 73.7 °F 59.4 °F 30.47 in East 14.0 mph 21.0 mph 61% 0.00 in WeatherDisplay:10.37 W/m2 FEW
12:40 73.5 °F 58.8 °F 30.46 in East 14.0 mph 21.0 mph 60% 0.00 in WeatherDisplay:10.37 W/m2 FEW
12:45 73.9 °F 59.1 °F 30.46 in East 14.0 mph 21.0 mph 60% 0.00 in WeatherDisplay:10.37 W/m2 FEW
12:50 74.6 °F 58.8 °F 30.46 in East 14.0 mph 21.0 mph 58% 0.00 in WeatherDisplay:10.37 W/m2 FEW
12:55 74.7 °F 58.5 °F 30.46 in East 14.0 mph 21.0 mph 57% 0.00 in WeatherDisplay:10.37 W/m2 FEW
13:00 74.9 °F 58.6 °F 30.46 in East 14.0 mph 21.0 mph 57% 0.00 in WeatherDisplay:10.37 W/m2 FEW
13:05 75.1 °F 59.3 °F 30.46 in East 14.0 mph 21.0 mph 58% 0.00 in WeatherDisplay:10.37 W/m2 FEW
13:10 75.1 °F 58.8 °F 30.45 in East 14.0 mph 21.0 mph 57% 0.00 in WeatherDisplay:10.37 W/m2 FEW
13:15 75.0 °F 58.3 °F 30.45 in East 9.0 mph 21.0 mph 56% 0.00 in WeatherDisplay:10.37 W/m2 SCT
13:20 74.9 °F 58.6 °F 30.45 in East 9.0 mph 9.0 mph 57% 0.00 in WeatherDisplay:10.37 W/m2 SCT
13:25 75.1 °F 58.8 °F 30.45 in East 9.0 mph 9.0 mph 57% 0.00 in WeatherDisplay:10.37 W/m2 SCT
13:30 75.2 °F 58.4 °F 30.44 in East 9.0 mph 9.0 mph 56% 0.00 in WeatherDisplay:10.37 W/m2 SCT
13:40 75.9 °F 59.1 °F 30.44 in East 9.0 mph 9.0 mph 56% 0.00 in WeatherDisplay:10.37 W/m2 SCT
13:45 76.1 °F 59.3 °F 30.44 in East 9.0 mph 9.0 mph 56% 0.00 in WeatherDisplay:10.37 W/m2 SCT
13:50 76.3 °F 58.9 °F 30.44 in East 9.0 mph 9.0 mph 55% 0.00 in WeatherDisplay:10.37 W/m2 SCT
13:55 76.5 °F 58.6 °F 30.43 in East 9.0 mph 9.0 mph 54% 0.00 in WeatherDisplay:10.37 W/m2 SCT
14:00 77.0 °F 59.5 °F 30.43 in East 9.0 mph 9.0 mph 55% 0.00 in WeatherDisplay:10.37 W/m2 SCT
14:05 76.9 °F 59.0 °F 30.43 in East 9.0 mph 9.0 mph 54% 0.00 in WeatherDisplay:10.37 W/m2 SCT
14:10 77.8 °F 59.3 °F 30.43 in East 9.0 mph 9.0 mph 53% 0.00 in WeatherDisplay:10.37 W/m2 SCT
14:15 78.0 °F 58.9 °F 30.43 in East 7.0 mph 9.0 mph 52% 0.00 in WeatherDisplay:10.37 W/m2 SCT
14:20 78.0 °F 58.4 °F 30.42 in East 7.0 mph 7.0 mph 51% 0.00 in WeatherDisplay:10.37 W/m2 SCT
14:25 77.7 °F 58.7 °F 30.42 in East 7.0 mph 7.0 mph 52% 0.00 in WeatherDisplay:10.37 W/m2 SCT
14:30 77.7 °F 58.7 °F 30.42 in East 7.0 mph 7.0 mph 52% 0.00 in WeatherDisplay:10.37 W/m2 SCT
14:40 77.2 °F 58.7 °F 30.41 in East 7.0 mph 7.0 mph 53% 0.00 in WeatherDisplay:10.37 W/m2 SCT
14:45 77.4 °F 58.9 °F 30.41 in East 7.0 mph 7.0 mph 53% 0.00 in WeatherDisplay:10.37 W/m2 SCT
14:55 78.3 °F 58.7 °F 30.41 in East 7.0 mph 7.0 mph 51% 0.00 in WeatherDisplay:10.37 W/m2 SCT
15:15 77.6 °F 58.6 °F 30.41 in ENE 7.0 mph 7.0 mph 52% 0.00 in WeatherDisplay:10.37 W/m2 SCT
15:20 77.6 °F 58.6 °F 30.41 in West 7.0 mph 7.0 mph 52% 0.00 in WeatherDisplay:10.37 W/m2 SCT
15:25 77.7 °F 59.2 °F 30.40 in ENE 6.0 mph 7.0 mph 53% 0.00 in WeatherDisplay:10.37 W/m2 SCT
15:35 77.2 °F 58.2 °F 30.40 in ENE 6.0 mph 6.0 mph 52% 0.00 in WeatherDisplay:10.37 W/m2 SCT
15:40 76.8 °F 58.4 °F 30.40 in ENE 6.0 mph 6.0 mph 53% 0.00 in WeatherDisplay:10.37 W/m2 SCT
15:45 76.2 °F 57.3 °F 30.40 in ENE 6.0 mph 6.0 mph 52% 0.00 in WeatherDisplay:10.37 W/m2 SCT
15:50 75.6 °F 57.8 °F 30.40 in ENE 6.0 mph 6.0 mph 54% 0.00 in WeatherDisplay:10.37 W/m2 SCT
15:55 75.6 °F 58.3 °F 30.40 in ENE 6.0 mph 6.0 mph 55% 0.00 in WeatherDisplay:10.37 W/m2 SCT
16:00 75.8 °F 57.4 °F 30.40 in ENE 6.0 mph 6.0 mph 53% 0.00 in WeatherDisplay:10.37 W/m2 SCT
16:05 75.5 °F 57.7 °F 30.40 in ENE 6.0 mph 6.0 mph 54% 0.00 in WeatherDisplay:10.37 W/m2 SCT
16:10 75.5 °F 57.2 °F 30.40 in ENE 6.0 mph 6.0 mph 53% 0.00 in WeatherDisplay:10.37 W/m2 SCT
16:15 75.7 °F 57.4 °F 30.40 in ENE 5.0 mph 6.0 mph 53% 0.00 in WeatherDisplay:10.37 W/m2 SCT
16:20 76.1 °F 57.2 °F 30.39 in ENE 5.0 mph 5.0 mph 52% 0.00 in WeatherDisplay:10.37 W/m2 SCT
16:25 76.1 °F 57.8 °F 30.39 in ENE 5.0 mph 5.0 mph 53% 0.00 in WeatherDisplay:10.37 W/m2 SCT
16:30 76.1 °F 57.2 °F 30.39 in ENE 5.0 mph 5.0 mph 52% 0.00 in WeatherDisplay:10.37 W/m2 SCT
16:35 76.1 °F 56.7 °F 30.39 in ENE 5.0 mph 5.0 mph 51% 0.00 in WeatherDisplay:10.37 W/m2 SCT
16:40 75.9 °F 56.5 °F 30.39 in ENE 5.0 mph 5.0 mph 51% 0.00 in WeatherDisplay:10.37 W/m2 SCT
16:45 75.8 °F 56.9 °F 30.39 in ENE 5.0 mph 5.0 mph 52% 0.00 in WeatherDisplay:10.37 W/m2 SCT
17:00 75.5 °F 56.6 °F 30.39 in WNW 5.0 mph 5.0 mph 52% 0.00 in WeatherDisplay:10.37 W/m2 SCT
17:10 75.3 °F 56.5 °F 30.39 in WNW 5.0 mph 5.0 mph 52% 0.00 in WeatherDisplay:10.37 W/m2 SCT
17:15 75.2 °F 56.9 °F 30.39 in NE 8.0 mph 8.0 mph 53% 0.00 in WeatherDisplay:10.37 W/m2 SCT
17:20 75.1 °F 56.3 °F 30.39 in ENE 8.0 mph 8.0 mph 52% 0.00 in WeatherDisplay:10.37 W/m2 SCT
17:30 74.8 °F 56.5 °F 30.39 in ENE 8.0 mph 8.0 mph 53% 0.00 in WeatherDisplay:10.37 W/m2 SCT
17:40 74.4 °F 56.2 °F 30.39 in ENE 8.0 mph 8.0 mph 53% 0.00 in WeatherDisplay:10.37 W/m2 SCT
17:45 74.3 °F 57.1 °F 30.39 in ENE 8.0 mph 8.0 mph 55% 0.00 in WeatherDisplay:10.37 W/m2 SCT
17:50 74.0 °F 56.8 °F 30.39 in ENE 8.0 mph 8.0 mph 55% 0.00 in WeatherDisplay:10.37 W/m2 SCT
17:55 73.9 °F 56.2 °F 30.39 in ENE 8.0 mph 8.0 mph 54% 0.00 in WeatherDisplay:10.37 W/m2 SCT
18:00 73.9 °F 56.7 °F 30.39 in ENE 8.0 mph 8.0 mph 55% 0.00 in WeatherDisplay:10.37 W/m2 SCT
18:05 73.7 °F 56.5 °F 30.39 in ENE 8.0 mph 8.0 mph 55% 0.00 in WeatherDisplay:10.37 W/m2 SCT
18:10 73.4 °F 56.8 °F 30.39 in ENE 8.0 mph 8.0 mph 56% 0.00 in WeatherDisplay:10.37 W/m2 SCT
18:25 73.0 °F 56.4 °F 30.39 in ENE 8.0 mph 8.0 mph 56% 0.00 in WeatherDisplay:10.37 W/m2 SCT
18:30 72.9 °F 56.8 °F 30.39 in ENE 8.0 mph 8.0 mph 57% 0.00 in WeatherDisplay:10.37 W/m2 SCT
18:40 72.7 °F 56.1 °F 30.39 in ENE 8.0 mph 8.0 mph 56% 0.00 in WeatherDisplay:10.37 W/m2 SCT
18:45 72.6 °F 56.0 °F 30.39 in ENE 8.0 mph 8.0 mph 56% 0.00 in WeatherDisplay:10.37 W/m2 SCT
18:50 72.4 °F 56.8 °F 30.39 in ENE 8.0 mph 8.0 mph 58% 0.00 in WeatherDisplay:10.37 W/m2 SCT
18:55 72.2 °F 56.1 °F 30.39 in ENE 8.0 mph 8.0 mph 57% 0.00 in WeatherDisplay:10.37 W/m2 SCT
19:00 72.1 °F 56.5 °F 30.39 in ENE 8.0 mph 8.0 mph 58% 0.00 in WeatherDisplay:10.37 W/m2 SCT
19:10 71.8 °F 56.7 °F 30.40 in ENE 8.0 mph 8.0 mph 59% 0.00 in WeatherDisplay:10.37 W/m2 SCT
19:15 71.5 °F 56.9 °F 30.40 in ENE 7.0 mph 8.0 mph 60% 0.00 in WeatherDisplay:10.37 W/m2 SCT
19:25 70.6 °F 57.0 °F 30.40 in East 7.0 mph 7.0 mph 62% 0.00 in WeatherDisplay:10.37 W/m2 SCT
19:30 70.2 °F 57.0 °F 30.40 in East 7.0 mph 7.0 mph 63% 0.00 in WeatherDisplay:10.37 W/m2 SCT
19:35 69.9 °F 56.7 °F 30.40 in East 7.0 mph 7.0 mph 63% 0.00 in WeatherDisplay:10.37 W/m2 SCT
19:40 69.6 °F 56.9 °F 30.40 in East 7.0 mph 7.0 mph 64% 0.00 in WeatherDisplay:10.37 W/m2 SCT
19:45 69.3 °F 56.6 °F 30.40 in East 7.0 mph 7.0 mph 64% 0.00 in WeatherDisplay:10.37 W/m2 SCT
19:50 69.1 °F 56.4 °F 30.40 in East 7.0 mph 7.0 mph 64% 0.00 in WeatherDisplay:10.37 W/m2 SCT
19:55 69.1 °F 56.4 °F 30.41 in East 7.0 mph 7.0 mph 64% 0.00 in WeatherDisplay:10.37 W/m2 SCT
20:00 69.2 °F 56.5 °F 30.41 in East 7.0 mph 7.0 mph 64% 0.00 in WeatherDisplay:10.37 W/m2 SCT
20:05 69.0 °F 56.3 °F 30.41 in East 7.0 mph 7.0 mph 64% 0.00 in WeatherDisplay:10.37 W/m2 SCT
20:10 68.7 °F 56.1 °F 30.41 in East 7.0 mph 7.0 mph 64% 0.00 in WeatherDisplay:10.37 W/m2 SCT
20:15 68.4 °F 56.2 °F 30.41 in ENE 5.0 mph 7.0 mph 65% 0.00 in WeatherDisplay:10.37 W/m2 FEW
20:20 68.2 °F 56.4 °F 30.41 in ENE 5.0 mph 5.0 mph 66% 0.00 in WeatherDisplay:10.37 W/m2 FEW
20:25 67.9 °F 56.1 °F 30.42 in ENE 5.0 mph 5.0 mph 66% 0.00 in WeatherDisplay:10.37 W/m2 FEW
20:30 67.6 °F 56.2 °F 30.42 in ENE 5.0 mph 5.0 mph 67% 0.00 in WeatherDisplay:10.37 W/m2 FEW
20:35 67.3 °F 56.4 °F 30.42 in ENE 5.0 mph 5.0 mph 68% 0.00 in WeatherDisplay:10.37 W/m2 FEW
20:40 67.0 °F 56.1 °F 30.42 in ENE 5.0 mph 5.0 mph 68% 0.00 in WeatherDisplay:10.37 W/m2 FEW
20:45 66.8 °F 56.3 °F 30.42 in ENE 5.0 mph 5.0 mph 69% 0.00 in WeatherDisplay:10.37 W/m2 FEW
20:50 66.5 °F 56.1 °F 30.42 in ENE 5.0 mph 5.0 mph 69% 0.00 in WeatherDisplay:10.37 W/m2 FEW
20:55 66.3 °F 55.9 °F 30.43 in ENE 5.0 mph 5.0 mph 69% 0.00 in WeatherDisplay:10.37 W/m2 FEW
21:00 66.2 °F 55.7 °F 30.43 in ENE 5.0 mph 5.0 mph 69% 0.00 in WeatherDisplay:10.37 W/m2 FEW
21:05 66.1 °F 56.0 °F 30.43 in ENE 5.0 mph 5.0 mph 70% 0.00 in WeatherDisplay:10.37 W/m2 FEW
21:10 66.0 °F 55.9 °F 30.43 in ENE 5.0 mph 5.0 mph 70% 0.00 in WeatherDisplay:10.37 W/m2 FEW
21:15 65.8 °F 55.7 °F 30.43 in ENE 3.0 mph 5.0 mph 70% 0.00 in WeatherDisplay:10.37 W/m2 CLR
21:30 65.4 °F 55.4 °F 30.44 in ENE 3.0 mph 3.0 mph 70% 0.00 in WeatherDisplay:10.37 W/m2 CLR
21:45 65.2 °F 55.6 °F 30.44 in ENE 3.0 mph 3.0 mph 71% 0.00 in WeatherDisplay:10.37 W/m2 CLR
21:50 65.1 °F 55.4 °F 30.44 in ENE 3.0 mph 3.0 mph 71% 0.00 in WeatherDisplay:10.37 W/m2 CLR
21:55 65.0 °F 55.0 °F 30.44 in ENE 3.0 mph 3.0 mph 70% 0.00 in WeatherDisplay:10.37 W/m2 CLR
22:00 65.0 °F 55.0 °F 30.44 in ENE 3.0 mph 3.0 mph 70% 0.00 in WeatherDisplay:10.37 W/m2 CLR
22:05 64.9 °F 55.3 °F 30.44 in ENE 3.0 mph 3.0 mph 71% 0.00 in WeatherDisplay:10.37 W/m2 CLR
22:10 64.8 °F 55.2 °F 30.44 in ENE 3.0 mph 3.0 mph 71% 0.00 in WeatherDisplay:10.37 W/m2 CLR
22:15 64.7 °F 55.1 °F 30.44 in East 3.0 mph 3.0 mph 71% 0.00 in WeatherDisplay:10.37 W/m2 CLR
22:20 64.6 °F 55.4 °F 30.44 in East 3.0 mph 3.0 mph 72% 0.00 in WeatherDisplay:10.37 W/m2 CLR
22:25 64.5 °F 55.3 °F 30.44 in East 3.0 mph 3.0 mph 72% 0.00 in WeatherDisplay:10.37 W/m2 CLR
22:30 64.5 °F 54.9 °F 30.44 in East 3.0 mph 3.0 mph 71% 0.00 in WeatherDisplay:10.37 W/m2 CLR
22:35 64.6 °F 55.4 °F 30.44 in East 3.0 mph 3.0 mph 72% 0.00 in WeatherDisplay:10.37 W/m2 CLR
22:40 64.7 °F 55.1 °F 30.44 in East 3.0 mph 3.0 mph 71% 0.00 in WeatherDisplay:10.37 W/m2 CLR
22:45 65.0 °F 54.9 °F 30.44 in East 3.0 mph 3.0 mph 70% 0.00 in WeatherDisplay:10.37 W/m2 CLR
22:50 65.1 °F 54.7 °F 30.44 in East 3.0 mph 3.0 mph 69% 0.00 in WeatherDisplay:10.37 W/m2 CLR
22:55 65.3 °F 54.9 °F 30.44 in East 3.0 mph 3.0 mph 69% 0.00 in WeatherDisplay:10.37 W/m2 CLR
23:00 65.4 °F 54.6 °F 30.44 in East 3.0 mph 3.0 mph 68% 0.00 in WeatherDisplay:10.37 W/m2 CLR
23:05 65.4 °F 54.6 °F 30.45 in East 3.0 mph 3.0 mph 68% 0.00 in WeatherDisplay:10.37 W/m2 CLR
23:10 65.5 °F 54.7 °F 30.45 in East 3.0 mph 3.0 mph 68% 0.00 in WeatherDisplay:10.37 W/m2 CLR
23:15 65.4 °F 54.6 °F 30.45 in East 5.0 mph 5.0 mph 68% 0.00 in WeatherDisplay:10.37 W/m2 CLR
23:20 65.3 °F 54.9 °F 30.45 in East 5.0 mph 5.0 mph 69% 0.00 in WeatherDisplay:10.37 W/m2 CLR
23:25 65.2 °F 54.7 °F 30.45 in East 5.0 mph 5.0 mph 69% 0.00 in WeatherDisplay:10.37 W/m2 CLR
23:30 65.1 °F 54.7 °F 30.45 in East 5.0 mph 5.0 mph 69% 0.00 in WeatherDisplay:10.37 W/m2 CLR
23:40 65.0 °F 54.6 °F 30.45 in East 5.0 mph 5.0 mph 69% 0.00 in WeatherDisplay:10.37 W/m2 CLR
23:45 64.9 °F 54.5 °F 30.45 in East 5.0 mph 5.0 mph 69% 0.00 in WeatherDisplay:10.37 W/m2 CLR
23:50 64.7 °F 54.7 °F 30.45 in East 5.0 mph 5.0 mph 70% 0.00 in WeatherDisplay:10.37 W/m2 CLR
23:55 64.6 °F 54.6 °F 30.45 in East 5.0 mph 5.0 mph 70% 0.00 in WeatherDisplay:10.37 W/m2 CLR
Piedmont Bend
Compliments of Weather Underground - 4 mb